Location: Veytaux
(46.4185°N, 6.9320°E)
Time: 07:38:29
(UTC+00:00)

CZ-2D R/B - Pass Details

Date: 27 May 2022
Orbit: 791 x 845 km, 98.7° (Epoch: 01 July)

Event Time Altitude Azimuth Distance (km) Brightness Sun altitude
Rises 02:11:06 0° 7° (N) 3,381 6.4 -13.1°
Reaches altitude 10° 02:13:38 10° 358° (N) 2,434 5.4 -12.8°
Maximum altitude 02:18:27 35° 295° (WNW) 1,309 3.1 -12.3°
Enters shadow 02:22:14 15° 237° (WSW) 2,067 3.6 -11.9°
